FW2297 Weather Reports


Display with metric or nautical units.
time (UTC)temp
F
wind
direction
speed
MPH
gust
MPH
rain 1hr
in
rain 24hr
in
rain mn
in
humidity
%
barometer
mb
20260502185548 49 0 0.0 0.0 0.01 0.13 0.13 79 1010.3
20260502185049 49 0 0.0 1.0 0.01 0.13 0.13 79 1010.4
20260502184559 49 0 0.0 1.0 0.01 0.13 0.13 80 1010.4
20260502184048 49 0 0.0 0.0 0.01 0.13 0.13 84 1010.4
20260502183548 48 0 0.0 0.0 0.01 0.13 0.13 84 1010.3
20260502183052 47 0 0.0 0.0 0.01 0.13 0.13 84 1010.5
20260502182549 47 0 0.0 0.0 0.01 0.13 0.13 84 1010.6
20260502182049 46 0 0.0 0.0 0.01 0.13 0.13 85 1010.7
20260502181553 46 0 0.0 0.0 0.01 0.13 0.13 84 1010.6
20260502181048 46 0 0.0 0.0 0.01 0.13 0.13 83 1010.7
20260502180548 46 0 0.0 0.0 0.00 0.12 0.12 81 1010.9
20260502164050 46 0 0.0 0.0 0.00 0.12 0.12 83 1010.7
20260502163548 46 0 0.0 0.0 0.00 0.12 0.12 83 1010.7
20260502163055 46 0 0.0 0.0 0.00 0.12 0.12 82 1010.7
20260502162548 46 0 0.0 0.0 0.00 0.12 0.12 83 1010.8
20260502162048 45 0 0.0 0.0 0.00 0.12 0.12 84 1010.8
20260502161619 45 0 0.0 0.0 0.00 0.12 0.12 83 1010.7
20260502161048 45 0 0.0 0.0 0.00 0.12 0.12 84 1011.1
20260502160549 45 0 0.0 0.0 0.00 0.12 0.12 84 1011.1
20260502160128 45 0 0.0 0.0 0.00 0.12 0.12 85 1011.2
20260502152051 43 0 0.0 0.0 0.00 0.12 0.12 91 1011.5
20260502151605 43 0 0.0 0.0 0.00 0.12 0.12 91 1011.5
20260502151049 43 0 0.0 4.0 0.00 0.12 0.12 91 1011.6
20260502150551 43 0 0.0 4.0 0.00 0.12 0.12 91 1011.6
20260502130549 40 0 0.0 0.0 0.01 0.12 0.12 95 1012.1
20260502130110 40 0 0.0 0.0 0.01 0.12 0.12 95 1012.1
20260502123548 39 0 0.0 0.0 0.02 0.11 0.11 95 1012.2
20260502123121 39 0 0.0 0.0 0.02 0.11 0.11 95 1012.2
20260502122548 39 0 0.0 0.0 0.02 0.11 0.11 95 1012.2
20260502122048 39 0 0.0 0.0 0.02 0.11 0.11 95 1012.1
20260502121602 39 0 0.0 0.0 0.02 0.11 0.11 95 1012.0
20260502121049 39 0 0.0 0.0 0.02 0.11 0.11 95 1012.1
20260502120551 39 0 0.0 0.0 0.02 0.11 0.11 95 1012.1
20260502120119 39 0 0.0 0.0 0.02 0.11 0.11 94 1012.1
20260502115548 38 0 0.0 0.0 0.01 0.10 0.10 94 1012.0
20260502115048 38 0 0.0 0.0 0.01 0.10 0.10 94 1012.0
20260502114600 38 0 0.0 0.0 0.00 0.09 0.09 94 1012.0
20260502114051 38 0 0.0 0.0 0.00 0.09 0.09 94 1012.1
20260502113548 38 0 0.0 0.0 0.00 0.09 0.09 94 1012.1
20260502113059 38 0 0.0 0.0 0.00 0.09 0.09 94 1011.9
20260502112548 38 0 0.0 0.0 0.00 0.09 0.09 94 1012.2
20260502112048 38 0 0.0 0.0 0.00 0.09 0.09 94 1012.0
20260502111554 38 0 0.0 0.0 0.00 0.09 0.09 94 1011.8
20260502111048 38 0 0.0 0.0 0.00 0.09 0.09 94 1011.8
20260502110548 38 0 0.0 0.0 0.00 0.09 0.09 94 1011.8
20260502110051 38 0 0.0 0.0 0.00 0.09 0.09 94 1011.8
20260502105549 38 0 0.0 0.0 0.00 0.09 0.09 94 1011.7
20260502105048 38 0 0.0 0.0 0.01 0.09 0.09 94 1011.7
20260502104549 38 0 0.0 0.0 0.01 0.09 0.09 94 1011.7
20260502104048 38 0 0.0 0.0 0.01 0.09 0.09 94 1011.8
20260502103548 37 0 0.0 0.0 0.02 0.09 0.09 94 1011.7
20260502103055 37 0 0.0 0.0 0.02 0.09 0.09 94 1011.8
20260502102551 37 0 0.0 0.0 0.03 0.09 0.09 94 1011.8
20260502102047 37 0 0.0 0.0 0.03 0.09 0.09 94 1011.8
20260502101559 37 0 0.0 0.0 0.03 0.09 0.09 94 1011.8
20260502101050 37 0 0.0 0.0 0.03 0.09 0.09 94 1012.1
20260502100548 37 0 0.0 0.0 0.04 0.09 0.09 94 1012.0
20260502091050 37 0 0.0 0.0 0.01 0.06 0.06 93 1011.7
20260502090547 37 0 0.0 0.0 0.00 0.05 0.05 93 1011.6
20260502071052 38 0 0.0 0.0 0.03 0.03 0.03 90 1012.2
20260502070552 38 0 0.0 0.0 0.03 0.03 0.03 89 1012.1
20260502070054 38 0 0.0 0.0 0.03 0.03 0.03 89 1012.3
20260502065551 37 0 0.0 4.0 0.02 0.02 0.02 88 1012.3
20260502065052 37 0 0.0 4.0 0.02 0.02 0.02 88 1012.2
20260502064551 37 0 0.0 5.0 0.01 0.01 0.01 87 1012.3
20260502064052 37 0 0.0 5.0 0.01 0.01 0.01 86 1012.3
20260502063552 37 0 0.0 5.0 0.01 0.01 0.01 86 1012.3
20260502063059 37 0 0.0 3.0 0.01 0.01 0.01 84 1012.2
20260502062551 37 0 0.0 3.0 0.00 0.00 0.00 83 1012.1
20260502062052 37 0 0.0 0.0 0.00 0.00 0.00 80 1012.2
20260502061551 37 0 0.0 0.0 0.00 0.00 0.00 80 1012.3
20260502061051 37 0 0.0 0.0 0.00 0.00 0.00 79 1012.2
20260502060552 37 0 0.0 0.0 0.00 0.00 0.00 78 1011.9
20260502060055 37 0 0.0 0.0 0.00 0.00 0.00 79 1012.0
20260502055552 37 0 0.0 0.0 0.00 0.00 0.00 78 1011.9
20260502055052 37 0 0.0 0.0 0.00 0.00 0.00 78 1011.7
20260502054551 37 0 0.0 0.0 0.00 0.00 0.00 78 1011.6
20260502054053 37 0 0.0 0.0 0.00 0.00 0.00 78 1011.6
20260502053551 37 0 0.0 0.0 0.00 0.00 0.00 78 1011.4
20260502053054 37 0 0.0 0.0 0.00 0.00 0.00 78 1011.4
20260502052551 37 0 0.0 0.0 0.00 0.00 0.00 78 1011.4
20260502052051 37 0 0.0 0.0 0.00 0.00 0.00 78 1011.4
20260502051553 37 0 0.0 0.0 0.00 0.00 0.00 77 1011.4
20260502051051 36 0 0.0 0.0 0.00 0.00 0.00 76 1011.5
20260502050552 36 0 0.0 0.0 0.00 0.00 0.00 76 1011.3
20260502050054 36 0 0.0 0.0 0.00 0.00 0.00 76 1011.3
20260502045553 37 0 0.0 0.0 0.00 0.00 0.00 76 1011.4
20260502045052 37 0 0.0 0.0 0.00 0.00 0.00 76 1011.4
20260502044551 37 0 0.0 0.0 0.00 0.00 0.00 75 1011.3
20260502044051 37 0 0.0 0.0 0.00 0.00 0.00 74 1011.3
20260502043551 37 0 0.0 0.0 0.00 0.00 0.00 74 1011.4
20260502043107 37 0 0.0 0.0 0.00 0.00 0.00 73 1011.4
20260502042551 37 0 0.0 0.0 0.00 0.00 0.00 73 1011.3
20260502042051 37 0 0.0 0.0 0.00 0.00 0.00 74 1011.4
20260502041555 37 0 0.0 0.0 0.00 0.00 0.00 73 1011.4
20260502041051 37 0 0.0 0.0 0.00 0.00 0.00 73 1011.4
20260502040552 37 0 0.0 0.0 0.00 0.00 0.00 73 1011.3
20260502040104 37 0 0.0 0.0 0.00 0.00 0.00 72 1011.2
20260502035552 37 0 0.0 0.0 0.00 0.00 0.00 72 1011.2
20260502035051 37 0 0.0 0.0 0.00 0.00 0.00 71 1011.3
20260502034602 37 0 0.0 0.0 0.00 0.00 0.00 71 1011.2
20260502034052 38 0 0.0 0.0 0.00 0.00 0.00 71 1011.0
20260502033552 38 0 0.0 0.0 0.00 0.00 0.00 70 1011.0
20260502033056 38 0 0.0 0.0 0.00 0.00 0.00 70 1011.0
20260502032549 38 0 0.0 0.0 0.00 0.00 0.00 70 1011.0
20260502032048 38 0 0.0 0.0 0.00 0.00 0.00 69 1010.9
20260502031555 39 0 0.0 0.0 0.00 0.00 0.00 67 1011.0
20260502031051 39 0 0.0 0.0 0.00 0.00 0.00 67 1011.1
20260502030548 39 0 0.0 0.0 0.00 0.00 0.00 67 1011.0
20260502030058 39 0 0.0 0.0 0.00 0.00 0.00 67 1011.0
20260502025551 39 0 0.0 0.0 0.00 0.00 0.00 66 1010.8
20260502025052 39 0 0.0 0.0 0.00 0.00 0.00 66 1010.8
20260502024609 40 0 0.0 0.0 0.00 0.00 0.00 65 1011.0
20260502024053 40 0 0.0 0.0 0.00 0.00 0.00 65 1011.0
20260502023551 40 0 0.0 0.0 0.00 0.00 0.00 65 1011.0
20260502023056 40 0 0.0 0.0 0.00 0.00 0.00 64 1011.0
20260502022551 41 0 0.0 0.0 0.00 0.00 0.00 64 1011.2
20260502022050 41 0 0.0 0.0 0.00 0.00 0.00 63 1011.0
20260502021605 41 0 0.0 0.0 0.00 0.00 0.00 62 1011.1
20260502021051 41 0 0.0 0.0 0.00 0.00 0.00 61 1011.1
20260502020551 41 0 0.0 0.0 0.00 0.00 0.00 59 1011.0
20260502020055 41 0 0.0 0.0 0.00 0.00 0.00 58 1011.1
20260502015548 41 0 0.0 0.0 0.00 0.00 0.00 58 1010.9
20260502015048 42 0 0.0 0.0 0.00 0.00 0.00 57 1011.0
20260502014552 42 0 0.0 0.0 0.00 0.00 0.00 58 1011.0
20260502014048 42 0 0.0 0.0 0.00 0.00 0.00 59 1010.9
20260502013552 42 0 0.0 0.0 0.00 0.00 0.00 57 1010.8
20260502013054 42 0 0.0 0.0 0.00 0.00 0.00 54 1010.9
20260502012548 43 0 0.0 0.0 0.00 0.00 0.00 55 1011.0
20260502012052 43 0 0.0 0.0 0.00 0.00 0.00 55 1011.0
20260502011552 43 0 0.0 0.0 0.00 0.00 0.00 55 1010.7
20260502011051 44 0 0.0 0.0 0.00 0.00 0.00 53 1010.7
20260502010551 44 0 0.0 0.0 0.00 0.00 0.00 52 1010.7
20260502010104 44 0 0.0 0.0 0.00 0.00 0.00 51 1010.3
20260502005551 45 0 0.0 0.0 0.00 0.00 0.00 51 1010.3
20260502005052 45 0 0.0 0.0 0.00 0.00 0.00 50 1010.5
20260502004603 45 0 0.0 2.0 0.00 0.00 0.00 51 1010.5
20260502004051 46 0 0.0 2.0 0.00 0.00 0.00 50 1010.4
20260502003550 46 0 0.0 0.0 0.00 0.00 0.00 49 1010.2
20260502003053 47 0 0.0 0.0 0.00 0.00 0.00 48 1010.3
20260502002550 48 0 0.0 0.0 0.00 0.00 0.00 47 1010.2
20260502002050 48 0 0.0 0.0 0.00 0.00 0.00 44 1010.1
20260502001557 49 0 0.0 0.0 0.00 0.00 0.00 41 1010.0
20260502001051 50 0 0.0 0.0 0.00 0.00 0.00 40 1009.9
20260502000551 51 0 0.0 0.0 0.00 0.00 0.00 39 1009.9
20260502000058 52 0 0.0 0.0 0.00 0.00 0.00 37 1009.7
20260501235551 52 0 0.0 0.0 0.00 0.00 0.00 36 1009.7
20260501235048 52 0 0.0 0.0 0.00 0.00 0.00 35 1009.5
20260501234553 53 0 0.0 2.0 0.00 0.00 0.00 35 1009.6
20260501234051 53 0 0.0 2.0 0.00 0.00 0.00 34 1009.4
20260501233548 54 0 0.0 2.0 0.00 0.00 0.00 34 1009.4
20260501233054 54 0 0.0 3.0 0.00 0.00 0.00 34 1009.3
20260501232550 54 0 0.0 3.0 0.00 0.00 0.00 34 1009.3
20260501232051 54 0 0.0 6.0 0.00 0.00 0.00 34 1009.3
20260501231553 55 0 0.0 6.0 0.00 0.00 0.00 33 1009.2
20260501231050 55 0 0.0 4.0 0.00 0.00 0.00 33 1009.1
20260501230552 55 0 0.0 5.0 0.00 0.00 0.00 32 1009.2
20260501230056 55 0 0.0 9.0 0.00 0.00 0.00 31 1009.0
20260501225551 56 0 0.0 9.0 0.00 0.00 0.00 31 1009.0
20260501225054 56 0 1.0 9.0 0.00 0.00 0.00 32 1009.0
20260501224556 56 0 0.0 7.0 0.00 0.00 0.00 32 1009.0
20260501224051 56 0 0.0 8.0 0.00 0.00 0.00 31 1008.8
20260501223548 56 0 1.0 8.0 0.00 0.00 0.00 32 1009.0
20260501223104 56 0 0.0 10.0 0.00 0.00 0.00 31 1008.8
20260501222548 56 0 2.0 10.0 0.00 0.00 0.00 31 1008.7
20260501222048 56 281 0.0 7.0 0.00 0.00 0.00 31 1008.6
20260501221558 56 257 0.0 7.0 0.00 0.00 0.00 32 1008.7
20260501221051 56 0 0.0 11.0 0.00 0.00 0.00 33 1008.8
20260501220551 56 306 0.0 11.0 0.00 0.00 0.00 32 1008.7
20260501220104 56 0 1.0 11.0 0.00 0.00 0.00 31 1008.8
20260501215549 56 0 2.0 12.0 0.00 0.01 0.00 30 1008.7
20260501215050 57 294 1.0 12.0 0.00 0.01 0.00 31 1008.7
20260501214553 56 354 0.0 16.0 0.00 0.01 0.00 31 1008.7
20260501214048 56 0 3.0 16.0 0.00 0.01 0.00 30 1008.7
20260501213550 56 289 1.0 14.0 0.00 0.01 0.00 31 1008.6
20260501213055 56 0 2.0 14.0 0.00 0.01 0.00 30 1008.5
20260501212550 57 0 0.0 14.0 0.00 0.01 0.00 30 1008.3
20260501212048 57 0 2.0 14.0 0.00 0.01 0.00 30 1008.4
20260501211603 57 0 1.0 14.0 0.00 0.01 0.00 29 1008.5
20260501211047 57 0 3.0 16.0 0.00 0.01 0.00 29 1008.3
20260501210548 57 258 0.0 18.0 0.00 0.01 0.00 30 1008.3
20260501210058 56 293 3.0 20.0 0.00 0.01 0.00 30 1008.4
20260501205550 56 0 1.0 20.0 0.00 0.01 0.00 31 1008.1
20260501205051 56 0 3.0 14.0 0.00 0.01 0.00 31 1008.3
20260501204552 55 303 2.0 18.0 0.00 0.01 0.00 32 1008.5
20260501204051 56 0 4.0 18.0 0.00 0.01 0.00 31 1008.3
20260501203551 56 279 1.0 15.0 0.00 0.01 0.00 31 1008.4
20260501203057 57 0 6.0 17.0 0.00 0.01 0.00 30 1008.5
20260501202549 57 0 4.0 17.0 0.00 0.01 0.00 31 1008.3
20260501202051 57 296 3.0 15.0 0.00 0.01 0.00 31 1008.5
20260501201601 57 0 3.0 15.0 0.00 0.01 0.00 30 1008.4
20260501201050 57 0 4.0 13.0 0.00 0.01 0.00 31 1008.4
20260501200548 57 343 4.0 13.0 0.00 0.01 0.00 31 1008.4
20260501200057 57 323 0.0 17.0 0.00 0.01 0.00 31 1008.4
20260501195555 57 0 1.0 20.0 0.00 0.01 0.00 31 1008.5
20260501195051 57 250 4.0 20.0 0.00 0.01 0.00 31 1008.5
20260501194559 57 0 8.0 20.0 0.00 0.01 0.00 30 1008.6
20260501194051 57 257 6.0 15.0 0.00 0.01 0.00 30 1008.7
20260501193551 57 283 0.0 17.0 0.00 0.01 0.00 31 1008.6
20260501193110 57 297 3.0 17.0 0.00 0.01 0.00 30 1008.6
20260501192551 57 308 2.0 15.0 0.00 0.01 0.00 31 1008.7
20260501192048 57 241 4.0 20.0 0.00 0.01 0.00 32 1008.7
20260501191556 57 326 7.0 20.0 0.00 0.01 0.00 31 1008.7
20260501191049 57 265 8.0 20.0 0.00 0.01 0.00 31 1008.6
20260501190551 56 297 3.0 19.0 0.00 0.01 0.00 32 1008.8
20260501190128 56 309 8.0 19.0 0.00 0.01 0.00 31 1008.7